FW8253 Weather Reports


time (UTC)temp
C
wind
direction
speed
KPH
gust
KPH
rain 1hr
cm
rain 24hr
cm
rain mn
cm
humidity
%
barometer
mb
20260503200015 23 246 0.0 0.0 0.00 0.00 0.00 43 1018.8
20260503195513 23 85 0.0 0.0 0.00 0.00 0.00 40 1018.8
20260503195009 22 100 0.0 0.0 0.00 0.00 0.00 42 1019.0
20260503194507 23 98 0.0 0.0 0.00 0.00 0.00 42 1019.0
20260503194006 23 253 0.0 0.0 0.00 0.00 0.00 45 1019.3
20260503193503 24 7 0.0 0.0 0.00 0.00 0.00 41 1019.4
20260503192958 23 179 0.0 0.0 0.00 0.00 0.00 44 1019.3
20260503192455 23 10 0.0 0.0 0.00 0.00 0.00 44 1019.6
20260503191950 23 230 0.0 0.0 0.00 0.00 0.00 44 1019.5
20260503191448 23 96 0.0 0.0 0.00 0.00 0.00 38 1019.6
20260503190944 23 242 0.0 0.0 0.00 0.00 0.00 48 1019.8
20260503190442 23 311 0.0 0.0 0.00 0.00 0.00 43 1019.8
20260503185938 23 219 0.0 0.0 0.00 0.00 0.00 41 1020.0
20260503185435 23 239 0.0 0.0 0.00 0.00 0.00 47 1020.0
20260503184934 22 233 0.0 0.0 0.00 0.00 0.00 44 1020.2
20260503184431 23 230 0.0 0.0 0.00 0.00 0.00 48 1020.4
20260503183927 23 230 0.0 0.0 0.00 0.00 0.00 44 1020.1
20260503183424 22 273 0.0 0.0 0.00 0.00 0.00 46 1020.4
20260503182921 22 218 0.0 0.0 0.00 0.00 0.00 44 1020.4
20260503182420 22 217 0.0 0.0 0.00 0.00 0.00 53 1020.8
20260503181917 22 238 0.0 0.0 0.00 0.00 0.00 42 1020.6
20260503181414 22 190 0.0 0.0 0.00 0.00 0.00 50 1020.9
20260503180910 22 194 0.0 0.0 0.00 0.00 0.00 46 1020.8
20260503180408 22 235 0.0 0.0 0.00 0.00 0.00 52 1020.8
20260503175904 21 140 0.0 0.0 0.00 0.00 0.00 43 1020.8
20260503175403 22 182 0.0 0.0 0.00 0.00 0.00 45 1021.0
20260503174858 22 217 0.0 0.0 0.00 0.00 0.00 55 1021.0
20260503174356 21 189 0.0 0.0 0.00 0.00 0.00 52 1021.1
20260503173851 20 146 0.0 0.0 0.00 0.00 0.00 52 1020.9
20260503173348 21 201 0.0 0.0 0.00 0.00 0.00 48 1021.2
20260503172844 22 248 0.0 0.0 0.00 0.00 0.00 48 1021.1
20260503172342 21 196 0.0 0.0 0.00 0.00 0.00 47 1021.2
20260503171838 21 244 0.0 0.0 0.00 0.00 0.00 44 1021.3
20260503171335 21 208 0.0 0.0 0.00 0.00 0.00 45 1021.3
20260503170832 21 205 0.0 0.0 0.00 0.00 0.00 42 1021.2
20260503170328 21 213 0.0 0.0 0.00 0.00 0.00 42 1021.2
20260503150721 18 237 0.0 0.0 0.00 0.00 0.00 64 1022.3
20260503150217 18 218 0.0 0.0 0.00 0.00 0.00 74 1022.3
20260503140141 15 221 0.0 0.0 0.00 0.00 0.00 91 1022.4
20260503131111 11 241 0.0 0.0 0.00 0.00 0.00 99 1022.1
20260503130609 11 180 0.0 0.0 0.00 0.00 0.00 99 1021.9
20260503130106 11 166 0.0 0.0 0.00 0.00 0.00 99 1022.0
20260503110458 8 227 0.0 0.0 0.00 0.00 0.00 99 1020.9
20260503090350 7 235 0.0 0.0 0.00 0.00 0.00 99 1019.7
20260503081312 8 235 0.0 0.0 0.00 0.00 0.00 99 1018.7
20260503080808 8 235 0.0 0.0 0.00 0.00 0.00 99 1019.0
20260503080305 8 235 0.0 0.0 0.00 0.00 0.00 99 1018.9
20260503072741 8 232 0.0 0.0 0.00 0.00 0.00 99 1018.7
20260503072238 8 232 0.0 0.0 0.00 0.00 0.00 99 1018.9
20260503071735 9 232 0.0 0.0 0.00 0.00 0.00 99 1018.7
20260503071231 9 232 0.0 0.0 0.00 0.00 0.00 99 1018.8
20260503070728 9 232 0.0 0.0 0.00 0.00 0.00 99 1018.6
20260503070226 9 232 0.0 0.0 0.00 0.00 0.00 99 1018.6
20260503060151 10 232 0.0 0.0 0.00 0.00 0.00 99 1018.4
20260503054638 10 232 0.0 0.0 0.00 0.00 0.00 99 1018.3
20260503054135 10 232 0.0 0.0 0.00 0.00 0.00 99 1018.4
20260503053633 10 232 0.0 0.0 0.00 0.00 0.00 99 1018.6
20260503053132 10 232 0.0 0.0 0.00 0.00 0.00 99 1018.5
20260503052628 10 232 0.0 0.0 0.00 0.00 0.00 99 1018.4
20260503052124 10 232 0.0 0.0 0.00 0.00 0.00 99 1018.3
20260503051619 10 232 0.0 0.0 0.00 0.00 0.00 99 1018.5
20260503051118 10 232 0.0 0.0 0.00 0.00 0.00 99 1018.1
20260503050614 10 233 0.0 0.0 0.00 0.00 0.00 99 1018.3
20260503050110 10 233 0.0 0.0 0.00 0.00 0.00 99 1018.1
20260503045608 11 233 0.0 0.0 0.00 0.00 0.00 99 1018.3
20260503045105 11 235 0.0 0.0 0.00 0.00 0.00 99 1018.2
20260503044601 11 235 0.0 0.0 0.00 0.00 0.00 99 1018.3
20260503044059 11 230 0.0 0.0 0.00 0.00 0.00 99 1018.2
20260503043555 11 230 0.0 0.0 0.00 0.00 0.00 99 1018.1
20260503043052 11 230 0.0 0.0 0.00 0.00 0.00 99 1018.0
20260503042549 11 231 0.0 0.0 0.00 0.00 0.00 99 1018.0
20260503042045 11 231 0.0 0.0 0.00 0.00 0.00 99 1018.1
20260503041542 11 231 0.0 0.0 0.00 0.00 0.00 99 1018.0
20260503041040 11 231 0.0 0.0 0.00 0.00 0.00 99 1018.0
20260503040537 11 230 0.0 0.0 0.00 0.00 0.00 99 1017.8
20260503040034 11 230 0.0 0.0 0.00 0.00 0.00 99 1017.9
20260503035531 11 231 0.0 0.0 0.00 0.05 0.05 99 1017.9
20260503035029 11 231 0.0 0.0 0.00 0.05 0.05 99 1017.9
20260503034526 11 231 0.0 0.0 0.00 0.05 0.05 99 1018.1
20260503034023 11 232 0.0 0.0 0.00 0.05 0.05 99 1018.1
20260503033520 12 231 0.0 0.0 0.00 0.05 0.05 99 1018.1
20260503033018 12 231 0.0 0.0 0.00 0.05 0.05 99 1017.9
20260503032516 12 231 0.0 0.0 0.00 0.05 0.05 99 1018.2
20260503032014 12 242 0.0 0.0 0.00 0.05 0.05 99 1017.9
20260503031511 12 247 0.0 0.0 0.00 0.05 0.05 99 1018.0
20260503031008 12 284 0.0 0.0 0.00 0.05 0.05 99 1017.9
20260503030504 12 266 0.0 0.0 0.00 0.05 0.05 99 1017.8
20260503030001 11 232 0.0 0.0 0.00 0.05 0.05 99 1017.5
20260503025458 11 232 0.0 0.0 0.00 0.05 0.05 99 1017.5
20260503024956 11 231 0.0 0.0 0.00 0.05 0.05 99 1017.3
20260503024451 11 231 0.0 0.0 0.00 0.05 0.05 99 1017.2
20260503023949 11 232 0.0 0.0 0.00 0.05 0.05 99 1017.2
20260503023446 11 232 0.0 0.0 0.00 0.05 0.05 99 1017.1
20260503022943 11 206 0.0 0.0 0.00 0.05 0.05 99 1017.1
20260503022438 11 206 0.0 0.0 0.00 0.05 0.05 99 1017.0
20260503021934 11 204 0.0 0.0 0.00 0.05 0.05 99 1016.8
20260503021430 11 204 0.0 0.0 0.00 0.05 0.05 99 1016.9
20260503020928 11 204 0.0 0.0 0.00 0.05 0.05 99 1016.5
20260503020425 11 204 0.0 0.0 0.00 0.05 0.05 99 1016.6
20260503015922 11 209 0.0 0.0 0.00 0.05 0.05 99 1016.7
20260503015419 11 209 0.0 0.0 0.00 0.05 0.05 99 1016.7
20260503014914 11 209 0.0 0.0 0.00 0.05 0.05 99 1016.4
20260503014412 11 207 0.0 0.0 0.00 0.05 0.05 99 1016.2
20260503013910 11 208 0.0 0.0 0.00 0.05 0.05 99 1016.3
20260503013406 11 208 0.0 0.0 0.00 0.05 0.05 99 1016.1
20260503012903 11 207 0.0 0.0 0.00 0.05 0.05 99 1016.0
20260503012401 11 207 0.0 0.0 0.00 0.05 0.05 99 1015.8
20260503011857 11 207 0.0 0.0 0.00 0.05 0.05 99 1015.7
20260503011355 11 207 0.0 0.0 0.00 0.05 0.05 99 1015.6
20260503010851 11 207 0.0 0.0 0.00 0.05 0.05 99 1015.6
20260503010348 11 207 0.0 0.0 0.00 0.05 0.05 99 1015.5
20260503005845 11 207 0.0 0.0 0.00 0.05 0.05 99 1015.5
20260503005343 11 204 0.0 0.0 0.00 0.05 0.05 99 1015.3
20260503004838 11 206 0.0 0.0 0.00 0.05 0.05 99 1015.6
20260503004336 11 232 0.0 0.0 0.00 0.05 0.05 99 1015.3
20260503003834 11 232 0.0 0.0 0.00 0.05 0.05 99 1015.0
20260503003330 11 232 0.0 0.0 0.00 0.05 0.05 99 1015.3
20260503002827 11 232 0.0 0.0 0.00 0.05 0.05 99 1015.1
20260503002324 11 232 0.0 0.0 0.00 0.05 0.05 99 1015.2
20260503001821 12 232 0.0 0.0 0.00 0.05 0.05 99 1014.9
20260503001317 12 232 0.0 0.0 0.00 0.05 0.05 99 1014.8
20260503000815 12 232 0.0 0.0 0.00 0.05 0.05 99 1014.7
20260503000312 12 232 0.0 0.0 0.00 0.05 0.05 99 1014.6
20260502235809 12 232 0.0 0.0 0.00 0.05 0.05 99 1014.6
20260502235306 12 233 0.0 0.0 0.00 0.05 0.05 99 1014.4
20260502234803 12 233 0.0 0.0 0.00 0.05 0.05 98 1014.4
20260502234300 12 233 0.0 0.0 0.00 0.05 0.05 98 1014.4
20260502233756 13 233 0.0 0.0 0.00 0.05 0.05 98 1014.4
20260502233253 13 233 0.0 0.0 0.00 0.05 0.05 98 1014.6
20260502232749 13 234 0.0 0.0 0.00 0.05 0.05 98 1014.2
20260502232246 13 233 0.0 0.0 0.00 0.05 0.05 97 1014.3
20260502231742 13 233 0.0 0.0 0.00 0.05 0.05 97 1014.2
20260502231240 13 236 0.0 0.0 0.00 0.05 0.05 97 1014.0
20260502230739 14 236 0.0 0.0 0.00 0.05 0.05 96 1014.0
20260502230237 14 236 0.0 0.0 0.00 0.05 0.05 95 1014.2
20260502225733 14 205 0.0 0.0 0.00 0.05 0.05 93 1014.0
20260502225230 14 231 0.0 0.0 0.00 0.05 0.05 94 1014.1
20260502224726 14 244 0.0 0.0 0.00 0.05 0.05 94 1014.2
20260502224223 14 246 0.0 0.0 0.00 0.05 0.05 95 1014.2
20260502223720 14 264 0.0 0.0 0.00 0.05 0.05 92 1014.1
20260502223218 14 242 0.0 0.0 0.00 0.05 0.05 93 1013.8
20260502222716 14 189 0.0 0.0 0.00 0.05 0.05 93 1014.3
20260502222212 14 253 0.0 0.0 0.00 0.05 0.05 94 1014.1
20260502221708 15 235 0.0 0.0 0.00 0.05 0.05 94 1013.9
20260502221205 14 213 0.0 0.0 0.00 0.05 0.05 93 1013.7
20260502220701 14 71 0.0 0.0 0.00 0.05 0.05 91 1013.9
20260502220157 15 246 0.0 0.0 0.00 0.05 0.05 92 1013.7
20260502215654 14 213 0.0 0.0 0.00 0.05 0.05 92 1013.7
20260502215151 14 184 0.0 0.0 0.00 0.05 0.05 91 1013.5
20260502214649 15 33 0.0 0.0 0.00 0.05 0.05 91 1013.5
20260502214146 15 231 0.0 0.0 0.00 0.05 0.05 94 1013.6
20260502213643 14 243 0.0 0.0 0.00 0.05 0.05 93 1013.6
20260502213140 15 296 0.0 0.0 0.00 0.05 0.05 93 1013.7
20260502212639 14 267 0.0 0.0 0.00 0.05 0.05 96 1013.6
20260502212137 13 214 0.0 0.0 0.00 0.05 0.05 97 1013.8
20260502211632 13 214 0.0 0.0 0.00 0.05 0.05 98 1013.8
20260502211129 13 160 0.0 0.0 0.00 0.05 0.05 98 1013.8
20260502210627 13 241 0.0 0.0 0.00 0.05 0.05 98 1013.7
20260502210124 13 266 0.0 0.0 0.00 0.05 0.05 98 1013.5
20260502205620 13 223 0.0 0.0 0.00 0.05 0.05 99 1013.6
20260502205117 13 226 0.0 0.0 0.00 0.05 0.05 99 1013.4
20260502204614 13 195 0.0 0.0 0.00 0.05 0.05 99 1013.4
20260502204112 12 110 0.0 0.0 0.00 0.05 0.05 99 1013.3
20260502203609 13 12 0.0 0.0 0.00 0.05 0.05 99 1013.4
20260502203106 12 167 0.0 0.0 0.00 0.05 0.05 99 1013.3
20260502202601 13 250 0.0 0.0 0.00 0.05 0.05 99 1013.4
20260502202100 13 229 0.0 0.0 0.00 0.05 0.05 99 1013.7
20260502201555 13 268 0.0 0.0 0.00 0.05 0.05 98 1013.4
20260502201052 13 210 0.0 0.0 0.00 0.05 0.05 98 1013.5
20260502200548 13 150 0.0 0.0 0.00 0.05 0.05 97 1013.6